Weather Roundup
Issued by NWS Springfield, MO

Home | Current Version | Previous Version | Text Only | Print | Product List | Glossary On
Versions: 1 2 3 4 5 6 7 8 9 10 11 12 13 14 15 16 17 18 19 20 21 22 23 24 25 26 27 28 29 30 31 32 33 34 35 36 37 38 39 40 41 42 43 44 45 46 47 48 49 50
000
NZUS99 KSGF 200707
HRRSGF

HOURLY WEATHER
NATIONAL WEATHER SERVICE SPRINGFIELD MO
200 AM CDT WED AUG 20 2014

......SGF CWA......

CITY           SKY/WX    TMP DP  RH WIND       PRES   REMARKS
SPRINGFIELD    CLEAR     79  70  74 SW10      29.90S
JOPLIN         CLEAR     80  71  74 S10       29.89S
WEST PLAINS    CLEAR     76  71  85 SW5       29.93R
ROLLA          CLEAR     72  67  84 SW5       29.86F
OSAGE BEACH    CLEAR     72  68  88 CALM      29.86S
BRANSON        CLEAR     77  72  83 SW6       29.94S

......SURROUNDING SGF CWA......

CITY           SKY/WX    TMP DP  RH WIND       PRES   REMARKS
CHANUTE        CLEAR     75  70  84 S7        29.87S
PARSONS        CLEAR     77  70  79 S5        29.89R
COFFEYVILLE    CLEAR     78  71  79 S9        29.87R
EMPORIA        CLEAR     74  67  78 S9        29.85S
GROVE OK       CLEAR     77  72  83 S3        29.91S
ROGERS AR      CLEAR     77  70  79 S6        29.95S
SILOAM SPRINGS CLEAR     73  66  78 S9        29.94S
HARRISON AR    CLEAR     79  71  76 SW7       29.94S
NEAR YELLVILLE CLEAR     79  66  65 SW5       29.91R

......KANSAS AND MISSOURI......

CITY           SKY/WX    TMP DP  RH WIND       PRES   REMARKS
KANSAS CTY INT PTCLDY    76  69  79 SW8       29.83S
DOWNTOWN KC    CLEAR     82  69  64 SW8       29.82S
COLUMBIA       CLEAR     74  71  91 S3        29.85F
SEDALIA        PTCLDY    74  70  87 S7        29.86S
ST JOSEPH      CLEAR     74  72  93 S3        29.81S
ST LOUIS       CLEAR     76  71  85 CALM      29.85S
SPIRIT OF STL  CLEAR     71  69  93 CALM      29.83F
KIRKSVILLE     CLEAR     70  68  93 CALM      29.86R
WICHITA        PTCLDY    77  68  73 S8        29.85S
TOPEKA         CLEAR     80  68  66 S7        29.82S
OLATHE         CLEAR     76  70  82 S8        29.84S

......TENNESSEE......

CITY           SKY/WX    TMP DP  RH WIND       PRES   REMARKS
MEMPHIS        CLEAR     81  76  84 SW8       29.89F
NASHVILLE      CLEAR     77  72  84 S6        29.91F

......ARKANSAS.......

CITY           SKY/WX    TMP DP  RH WIND       PRES   REMARKS
FAYETTEVILLE   PTCLDY    74  70  87 CALM      29.94S
FT SMITH       CLEAR     76  73  91 CALM      29.90S
LITTLE ROCK    CLEAR     78  75  90 CALM      29.90F

......OKLAHOMA.......

CITY           SKY/WX    TMP DP  RH WIND       PRES   REMARKS
TULSA          CLEAR     81  71  71 S6        29.86F
PONCA CITY     CLEAR     79  69  71 VRB3      29.86S
MCALESTER      PTCLDY    78  70  76 S6        29.90S
OKLAHOMA CITY  PTCLDY    75  67  76 S5        29.87F

......IOWA............

CITY           SKY/WX    TMP DP  RH WIND       PRES   REMARKS
DES MOINES     PTCLDY    71  66  84 S3        29.83R
QUAD CITIES    CLEAR     66  62  87 W3        29.83R

......ILLINOIS........

CITY           SKY/WX    TMP DP  RH WIND       PRES   REMARKS
QUINCY         CLEAR     72  70  93 CALM      29.83F
CHICAGO        CLEAR     69  61  75 W6        29.78F




USA.gov is the U.S. government's official web portal to all federal, state and local government web resources and services.